Regional Weather Roundup
Issued by NWS

Home | Current Version | Previous Version | Graphics & Text | Print | Product List | Glossary On
Versions: 1 2 3 4 5 6 7 8 9 10 11 12 13 14 15 16 17 18 19 20 21 22 23 24 25 26 27 28 29 30 31 32 33 34 35 36 37 38 39 40 41 42 43 44 45 46 47 48 49 50
000
ASUS45 KPSR 111510
RWRAZ

ARIZONA HOURLY REGIONAL WEATHER ROUNDUP
NATIONAL WEATHER SERVICE PHOENIX AZ
800 AM MST MON DEC 11 2017

NOTE: FAIR INDICATES FEW OR NO CLOUDS BELOW 12,000 FEET WITH NO
SIGNIFICANT WEATHER AND/OR OBSTRUCTIONS TO VISIBILITY.

AZZ001>003-036-111600-
NORTHWEST ARIZONA

CITY           SKY/WX    TMP DP  RH WIND       PRES   REMARKS
BULLHEAD CITY  MOCLDY    59   7  12 NE24G32   30.30R
KINGMAN        MOCLDY    32  -1  24 E6        30.38R WCI  26
$$

AZZ004>008-015-016-018-111600-
NORTH CENTRAL ARIZONA

CITY           SKY/WX    TMP DP  RH WIND       PRES   REMARKS
GRAND CANYON   MOCLDY    16 -12  28 NE7       30.49R WCI   6
WILLIAMS       MOCLDY    21 -13  21 SE10      30.44S WCI  10
PRESCOTT       CLOUDY    27   0  31 S6        30.41R WCI  20
FLAGSTAFF      MOCLDY    13  -5  44 CALM      30.48S
PAYSON         CLOUDY    43  -6  13 NE8       30.39R
PAGE           CLOUDY    26  11  52 CALM      30.53R HAZE
$$

AZZ009>014-017-111600-
NORTHEAST ARIZONA

CITY           SKY/WX    TMP DP  RH WIND       PRES   REMARKS
WINSLOW        CLOUDY    14  -6  40 NE5       30.52S WCI   6
SAINT JOHNS    CLOUDY    21   1  41 S7        30.47F WCI  12
WINDOW ROCK    PTCLDY     6 -12  43 CALM      30.50S
SHOW LOW       CLOUDY    25   0  33 CALM      30.49S
$$

AZZ540-542>544-546-548-111600-
GREATER PHOENIX AREA

CITY           SKY/WX    TMP DP  RH WIND       PRES   REMARKS
PHOENIX        CLOUDY    56  18  22 CALM      30.22R
BUCKEYE        CLOUDY    50   1  13 N7        30.23R
GLENDALE       CLOUDY    52  16  24 N6        30.24S
LUKE AFB       CLOUDY    52  20  28 N6        30.22R
DEER VALLEY    CLOUDY    54   1  11 CALM      30.24R
SCOTTSDALE     CLOUDY    58  13  17 CALM      30.25R
MESA-FALCON    MOCLDY    61   9  12 NE7       30.24
MESA-GATEWAY   MOCLDY    48  16  27 CALM      30.24R
CHANDLER       MOCLDY    54  19  26 N5        30.23R
$$

AZZ539-553-111600-
SOUTHWEST MARICOPA COUNTY AND PINAL COUNTY

CITY           SKY/WX    TMP DP  RH WIND       PRES   REMARKS
CASA GRANDE    NOT AVBL
GILA BEND      MOCLDY    57  10  15 NE12      30.20R
$$

AZZ503-504-507>509-111600-
SOUTHEAST ARIZONA

CITY           SKY/WX    TMP DP  RH WIND       PRES   REMARKS
TUCSON         CLOUDY    60  17  18 SE12G22   30.27R
DAVIS-MONTHAN  CLOUDY    57  18  21 E17       30.26R
RYAN FIELD     CLEAR     55  18  22 E14       30.25S
NOGALES        MOCLDY    50  17  27 NE6       30.30R
SIERRA VISTA   CLOUDY    42  15  33 CALM      30.35R
DOUGLAS        CLOUDY    38  16  40 SE5       30.36R WCI  34
SAFFORD        MOCLDY    42   9  25 E9        30.36S
$$

AZZ532-111600-
SOUTHWEST ARIZONA

CITY           SKY/WX    TMP DP  RH WIND       PRES   REMARKS
YUMA           MOCLDY    57  15  19 NE6       30.20R
$$

CAZ041-043-047-048-061-525>527-560>570-111600-
SOUTHERN CALIFORNIA

CITY           SKY/WX    TMP DP  RH WIND       PRES   REMARKS
DOWNTOWN L.A.  CLEAR     58  15  18 E3        30.17R
L.A. AIRPORT   MOCLDY    62  13  14 NE6       30.17R
SAN DIEGO      MOCLDY    55  24  30 N3        30.18R
BURBANK        CLEAR     51  18  27 CALM      30.18S
ONTARIO        MOCLDY    51  14  22 CALM      30.20R
RIVERSIDE      CLOUDY    56  15  20 NE7       30.20R
PALM SPRINGS   CLEAR     61  11  14 W5        30.24R
EL CENTRO NAS  MOCLDY    50  13  22 W8        30.23R
IMPERIAL       MOCLDY    50  20  30 W6        30.20R
BLYTHE         CLOUDY    51  11  20 SE5       30.26R
NEEDLES        MOCLDY    55   7  14 NW8       30.31R
$$

NVZ020-UTZ003-111600-
SOUTHERN NEVADA-UTAH

CITY           SKY/WX    TMP DP  RH WIND       PRES   REMARKS
LAS VEGAS      PTCLDY    41   3  20 W8        30.39R
SALT LAKE CITY FOG       24  21  88 CALM      30.62R VSB 1/8
$$

NMZ009-TXZ055-111600-
NEW MEXICO-WEST TEXAS

CITY           SKY/WX    TMP DP  RH WIND       PRES   REMARKS
ALBUQUERQUE    CLOUDY    28   4  35 N9        30.47R WCI  19
EL PASO        CLOUDY    37  16  42 N8        30.41R WCI  31
$$


........................KEY........................
SKY/WX - SKY CONDITION/WEATHER
TMP    - TEMPERATURE IN FAHRENHEIT
DP     - DEW POINT IN FAHRENHEIT
RH     - RELATIVE HUMIDITY IN PERCENT
WIND   - DIRECTION AND SPEED IN MILES PER HOUR (MPH)
VRB    - VARIABLE WIND DIRECTION
PRES   - MEAN SEA LEVEL PRESSURE IN INCHES OF MERCURY
         F - FALLING PRESSURE   R - RISING PRESSURE
         S - STEADY PRESSURE
VSB    - VISIBILITY IN MILES
HX     - HEAT INDEX IN FAHRENHEIT
WCI    - WIND CHILL INDEX IN FAHRENHEIT
TC     - TEMPERATURE IN CELSIUS WHICH IS ALSO KNOWN AS
         TEMPERATURE IN CENTIGRADE
AFB    - AIR FORCE BASE
         LUKE AFB IS LUKE AIR FORCE BASE
         DAVIS-MONTHAN IS DAVIS-MONTHAN AIR FORCE BASE
NAS    - NAVAL AIR STATION
         EL CENTRO NAS IS EL CENTRO NAVAL AIR STATION
N/A    - NOT AVAILABLE




USA.gov is the U.S. government's official web portal to all federal, state and local government web resources and services.